DELTA 1 DEB, 14461

Orbit data source: Space-Track

DELTA 1 DEB, 14461 is space debris in SSO originally from a launch on Sun, 05 Mar 1978 UTC launched from the Air Force Western Test Range (AFWTR). Debris objects in space refer to the collection of defunct objects orbiting the Earth. Examples of debris include non-operational satellites, rocket bodies, and fragments generated from explosions, collisions, or faulty payload assembly.

Loading next visibility...
Identifier
14461, 1978-026GB
Orbit
SSO
Country
Flag of USUS
Related business
Manufacturer
Unknown
Mission
Spacecraft
Bus & Motor
Unknown
Mass
Unknown
Launch date (UTC)
1978-03-05 (48 years ago)
Launch vehicle
Unknown
Launch site
Air Force Western Test Range (AFWTR)
Object type
Payload
Rocket body
Debris
Shape & HBR
Unknown shape, 0.1 m
Radar Cross Section
Medium (>0.1 m² and <1 m²)

Expand to show TLE details & history
Last TLE update: 3 days ago

TLE from 3 days ago
0 DELTA 1 DEB
1 14461U 78026GB  26171.22497207  .00001455  00000-0  57896-3 0  9992
2 14461  99.1735 275.7719 0088467 116.7650 308.0253 14.28181503320895
Epoch: 2026-06-20T05:23Z
TLE epoch observation values (Epoch: 2026-06-20T05:23:57.586Z)
Latitude
62.61721°
Longitude
-91.72662°
Altitude
769.753 km
Speed
7.495 km/s
True Right ascension
17h 10m 49s
True Declination
62° 28' 36"
Sunlit
Object was in daylight at epoch
Visualization orbit readout
Latitude
Unknown
Longitude
Unknown
Altitude
Unknown
Speed
Unknown
Apparent Right ascension
Unknown
Apparent Declination
Unknown
Sunlit
N/A
Visualization observer readout
Local Sidereal Time
06:32:18
Azimuth
Unknown
Elevation
Unknown
Doppler factor
Unknown
Orbital elements
Apogee altitude
858.444 km
Perigee altitude
731.528 km
Semi-major axis
7,173.123 km
Eccentricity
0.00885
Inclination
99.1735°
RAAN
275.7719°
Arg. of periapsis
116.765°
True anomaly
307.22127°
Mean anomaly
308.0253°
Eccentric anomaly
307.62383°
Mean motion
3.57257 °/min
Orbital period
100.77 mins
BSTAR
0.00057896
Loading maneuver chart data...
Computing Atmospheric mass density...

Documentation

Showing up to 5 results
|